Time,TemperatureF,DewpointF,PressureIn,WindDirection,WindDirectionDegrees,WindSpeedMPH,WindSpeedGustMPH,Humidity,HourlyPrecipIn,Conditions,Clouds,dailyrainin,SoftwareType,DateUTC
2013-05-18 00:03:00,49.0,46.0,-100.00,North,355,3.0,5.0,89,-99.99,,,-99.99,,2013-05-18 04:03:00,
2013-05-18 00:12:00,49.0,46.0,-100.00,NNE,25,3.0,5.0,91,-99.99,,,-99.99,,2013-05-18 04:12:00,
2013-05-18 00:23:00,49.0,46.0,-100.00,NNE,25,3.0,5.0,91,-99.99,,,-99.99,,2013-05-18 04:23:00,
2013-05-18 00:33:00,48.0,46.0,-100.00,North,0,2.0,3.0,94,-99.99,,,-99.99,,2013-05-18 04:33:00,
2013-05-18 00:42:00,48.0,46.0,-100.00,NW,315,3.0,3.0,94,-99.99,,,-99.99,,2013-05-18 04:42:00,
2013-05-18 00:52:00,48.0,46.0,-100.00,NNW,340,2.0,3.0,94,-99.99,,,-99.99,,2013-05-18 04:52:00,
2013-05-18 01:02:00,48.0,46.0,-100.00,North,355,2.0,5.0,94,-99.99,,,-99.99,,2013-05-18 05:02:00,
2013-05-18 01:13:00,48.0,46.0,-100.00,NNE,30,2.0,5.0,95,-99.99,,,-99.99,,2013-05-18 05:13:00,
2013-05-18 01:22:00,47.0,46.0,-100.00,NE,45,2.0,5.0,95,-99.99,,,-99.99,,2013-05-18 05:22:00,
2013-05-18 01:32:00,47.0,46.0,-100.00,West,260,2.0,5.0,96,-99.99,,,-99.99,,2013-05-18 05:32:00,
2013-05-18 01:42:00,47.0,46.0,-100.00,NNE,25,5.0,5.0,97,-99.99,,,-99.99,,2013-05-18 05:42:00,
2013-05-18 01:52:00,47.0,46.0,-100.00,NNE,25,2.0,6.0,96,-99.99,,,-99.99,,2013-05-18 05:52:00,
2013-05-18 02:02:00,47.0,46.0,-100.00,West,260,3.0,5.0,97,-99.99,,,-99.99,,2013-05-18 06:02:00,
2013-05-18 02:11:00,47.0,47.0,-100.00,WNW,285,2.0,3.0,97,-99.99,,,-99.99,,2013-05-18 06:11:00,
2013-05-18 02:22:00,47.0,47.0,-100.00,North,10,2.0,3.0,98,-99.99,,,-99.99,,2013-05-18 06:22:00,
2013-05-18 02:32:00,48.0,47.0,-100.00,NNW,345,3.0,5.0,98,-99.99,,,-99.99,,2013-05-18 06:32:00,
2013-05-18 02:42:00,48.0,47.0,-100.00,NE,45,5.0,6.0,97,-99.99,,,-99.99,,2013-05-18 06:42:00,
2013-05-18 02:52:00,49.0,48.0,-100.00,NE,45,3.0,6.0,97,-99.99,,,-99.99,,2013-05-18 06:52:00,
2013-05-18 03:01:00,49.0,48.0,-100.00,NNE,25,3.0,6.0,97,-99.99,,,-99.99,,2013-05-18 07:01:00,
2013-05-18 03:12:00,49.0,48.0,-100.00,NNE,20,3.0,7.0,95,-99.99,,,-99.99,,2013-05-18 07:12:00,
2013-05-18 03:21:00,49.0,48.0,-100.00,East,95,3.0,6.0,94,-99.99,,,-99.99,,2013-05-18 07:21:00,
2013-05-18 03:32:00,50.0,47.0,-100.00,NE,40,5.0,7.0,92,-99.99,,,-99.99,,2013-05-18 07:32:00,
2013-05-18 03:42:00,50.0,47.0,-100.00,East,95,3.0,7.0,92,-99.99,,,-99.99,,2013-05-18 07:42:00,
2013-05-18 03:52:00,50.0,47.0,-100.00,East,95,3.0,7.0,92,-99.99,,,-99.99,,2013-05-18 07:52:00,
2013-05-18 04:01:00,50.0,47.0,-100.00,East,80,3.0,5.0,92,-99.99,,,-99.99,,2013-05-18 08:01:00,
2013-05-18 04:11:00,49.0,47.0,-100.00,NE,40,5.0,8.0,92,-99.99,,,-99.99,,2013-05-18 08:11:00,
2013-05-18 04:21:00,49.0,47.0,-100.00,SW,235,5.0,7.0,92,-99.99,,,-99.99,,2013-05-18 08:21:00,
2013-05-18 04:32:00,50.0,47.0,-100.00,East,95,3.0,5.0,91,-99.99,,,-99.99,,2013-05-18 08:32:00,
2013-05-18 04:42:00,49.0,48.0,-100.00,East,95,3.0,6.0,93,-99.99,,,-99.99,,2013-05-18 08:42:00,
2013-05-18 04:52:00,49.0,48.0,-100.00,SE,140,3.0,5.0,95,-99.99,,,-99.99,,2013-05-18 08:52:00,
2013-05-18 05:02:00,49.0,48.0,-100.00,NNE,30,5.0,8.0,99,-99.99,,,-99.99,,2013-05-18 09:02:00,
2013-05-18 05:11:00,49.0,48.0,-100.00,ENE,65,6.0,7.0,99,-99.99,,,-99.99,,2013-05-18 09:11:00,
2013-05-18 05:22:00,49.0,41.0,-100.00,ENE,60,3.0,9.0,75,-99.99,,,-99.99,,2013-05-18 09:22:00,
2013-05-18 05:33:00,49.0,41.0,-100.00,East,95,2.0,6.0,74,-99.99,,,-99.99,,2013-05-18 09:33:00,
2013-05-18 05:43:00,49.0,41.0,-100.00,NNE,30,3.0,6.0,73,-99.99,,,-99.99,,2013-05-18 09:43:00,
2013-05-18 05:53:00,49.0,41.0,-100.00,NE,55,3.0,6.0,73,-99.99,,,-99.99,,2013-05-18 09:53:00,
2013-05-18 06:03:00,49.0,41.0,-100.00,East,80,3.0,5.0,73,-99.99,,,-99.99,,2013-05-18 10:03:00,
2013-05-18 06:12:00,49.0,41.0,-100.00,NNE,15,3.0,5.0,73,-99.99,,,-99.99,,2013-05-18 10:12:00,
2013-05-18 06:23:00,49.0,41.0,-100.00,NE,40,5.0,9.0,73,-99.99,,,-99.99,,2013-05-18 10:23:00,
2013-05-18 06:33:00,50.0,42.0,-100.00,NE,35,5.0,8.0,75,-99.99,,,-99.99,,2013-05-18 10:33:00,
2013-05-18 06:42:00,50.0,49.0,-100.00,East,90,5.0,9.0,98,-99.99,,,-99.99,,2013-05-18 10:42:00,
2013-05-18 06:52:00,50.0,50.0,-100.00,SW,230,2.0,7.0,97,-99.99,,,-99.99,,2013-05-18 10:52:00,
2013-05-18 07:03:00,50.0,50.0,-100.00,ENE,75,2.0,6.0,98,-99.99,,,-99.99,,2013-05-18 11:03:00,
2013-05-18 07:12:00,50.0,50.0,-100.00,NE,40,3.0,7.0,97,-99.99,,,-99.99,,2013-05-18 11:12:00,
2013-05-18 07:22:00,50.0,50.0,-100.00,SE,145,3.0,8.0,99,-99.99,,,-99.99,,2013-05-18 11:22:00,
2013-05-18 07:33:00,50.0,50.0,-100.00,ESE,115,3.0,5.0,99,-99.99,,,-99.99,,2013-05-18 11:33:00,
2013-05-18 07:42:00,50.0,43.0,-100.00,ESE,110,2.0,6.0,78,-99.99,,,-99.99,,2013-05-18 11:42:00,
2013-05-18 07:52:00,50.0,43.0,-100.00,SSE,155,5.0,7.0,78,-99.99,,,-99.99,,2013-05-18 11:52:00,
2013-05-18 08:02:00,50.0,43.0,-100.00,SE,140,3.0,7.0,78,-99.99,,,-99.99,,2013-05-18 12:02:00,
2013-05-18 08:12:00,50.0,43.0,-100.00,ESE,110,3.0,6.0,77,-99.99,,,-99.99,,2013-05-18 12:12:00,
2013-05-18 08:23:00,50.0,43.0,-100.00,ESE,105,3.0,5.0,78,-99.99,,,-99.99,,2013-05-18 12:23:00,
2013-05-18 08:33:00,49.0,44.0,-100.00,ENE,60,3.0,5.0,82,-99.99,,,-99.99,,2013-05-18 12:33:00,
2013-05-18 08:42:00,50.0,44.0,-100.00,ENE,75,3.0,6.0,81,-99.99,,,-99.99,,2013-05-18 12:42:00,
2013-05-18 08:52:00,50.0,44.0,-100.00,SE,140,5.0,6.0,80,-99.99,,,-99.99,,2013-05-18 12:52:00,
2013-05-18 09:01:00,50.0,44.0,-100.00,North,5,2.0,5.0,79,-99.99,,,-99.99,,2013-05-18 13:01:00,
2013-05-18 09:11:00,50.0,44.0,-100.00,East,80,3.0,7.0,79,-99.99,,,-99.99,,2013-05-18 13:11:00,
2013-05-18 09:21:00,50.0,43.0,-100.00,SE,140,5.0,7.0,78,-99.99,,,-99.99,,2013-05-18 13:21:00,
2013-05-18 09:33:00,51.0,43.0,-100.00,East,95,3.0,6.0,75,-99.99,,,-99.99,,2013-05-18 13:33:00,
2013-05-18 09:43:00,50.0,43.0,-100.00,SE,140,3.0,7.0,76,-99.99,,,-99.99,,2013-05-18 13:43:00,
2013-05-18 09:52:00,50.0,43.0,-100.00,East,95,3.0,7.0,76,-99.99,,,-99.99,,2013-05-18 13:52:00,
2013-05-18 10:03:00,50.0,43.0,-100.00,ESE,120,5.0,8.0,78,-99.99,,,-99.99,,2013-05-18 14:03:00,
2013-05-18 10:12:00,50.0,43.0,-100.00,East,100,5.0,9.0,78,-99.99,,,-99.99,,2013-05-18 14:12:00,
2013-05-18 10:22:00,50.0,43.0,-100.00,ESE,120,3.0,8.0,77,-99.99,,,-99.99,,2013-05-18 14:22:00,
2013-05-18 10:33:00,50.0,42.0,-100.00,SE,140,3.0,5.0,73,-99.99,,,-99.99,,2013-05-18 14:33:00,
2013-05-18 10:42:00,50.0,42.0,-100.00,East,95,3.0,6.0,74,-99.99,,,-99.99,,2013-05-18 14:42:00,
2013-05-18 10:54:00,50.0,42.0,-100.00,East,85,3.0,7.0,73,-99.99,,,-99.99,,2013-05-18 14:54:00,
2013-05-18 11:03:00,51.0,42.0,-100.00,ENE,65,3.0,9.0,73,-99.99,,,-99.99,,2013-05-18 15:03:00,
2013-05-18 11:13:00,51.0,45.0,-100.00,East,95,5.0,8.0,81,-99.99,,,-99.99,,2013-05-18 15:13:00,
2013-05-18 11:23:00,51.0,45.0,-100.00,SE,140,3.0,6.0,81,-99.99,,,-99.99,,2013-05-18 15:23:00,
2013-05-18 11:33:00,51.0,44.0,-100.00,ENE,70,5.0,9.0,78,-99.99,,,-99.99,,2013-05-18 15:33:00,
2013-05-18 11:43:00,51.0,44.0,-100.00,NE,40,5.0,9.0,77,-99.99,,,-99.99,,2013-05-18 15:43:00,
2013-05-18 11:53:00,51.0,44.0,-100.00,ENE,70,5.0,10.0,76,-99.99,,,-99.99,,2013-05-18 15:53:00,
2013-05-18 12:03:00,52.0,44.0,-100.00,ENE,70,5.0,8.0,75,-99.99,,,-99.99,,2013-05-18 16:03:00,
2013-05-18 12:13:00,52.0,45.0,-100.00,SE,130,6.0,8.0,77,-99.99,,,-99.99,,2013-05-18 16:13:00,
2013-05-18 12:22:00,52.0,45.0,-100.00,ESE,110,5.0,7.0,76,-99.99,,,-99.99,,2013-05-18 16:22:00,
2013-05-18 12:33:00,52.0,52.0,-100.00,ESE,105,5.0,7.0,99,-99.99,,,-99.99,,2013-05-18 16:33:00,
2013-05-18 12:42:00,53.0,52.0,-100.00,WNW,295,3.0,7.0,97,-99.99,,,-99.99,,2013-05-18 16:42:00,
2013-05-18 12:52:00,53.0,52.0,-100.00,WNW,295,3.0,7.0,97,-99.99,,,-99.99,,2013-05-18 16:52:00,
2013-05-18 13:02:00,54.0,52.0,-100.00,SSE,150,6.0,8.0,93,-99.99,,,-99.99,,2013-05-18 17:02:00,
2013-05-18 13:12:00,54.0,52.0,-100.00,SE,125,6.0,7.0,92,-99.99,,,-99.99,,2013-05-18 17:12:00,
2013-05-18 13:22:00,54.0,52.0,-100.00,SE,125,5.0,7.0,92,-99.99,,,-99.99,,2013-05-18 17:22:00,
2013-05-18 13:32:00,54.0,52.0,-100.00,ESE,115,5.0,10.0,92,-99.99,,,-99.99,,2013-05-18 17:32:00,
2013-05-18 13:42:00,55.0,52.0,-100.00,SSE,165,5.0,9.0,91,-99.99,,,-99.99,,2013-05-18 17:42:00,
2013-05-18 13:52:00,56.0,52.0,-100.00,East,90,3.0,10.0,89,-99.99,,,-99.99,,2013-05-18 17:52:00,
2013-05-18 14:01:00,56.0,52.0,-100.00,ESE,120,7.0,13.0,85,-99.99,,,-99.99,,2013-05-18 18:01:00,
2013-05-18 14:12:00,57.0,52.0,-100.00,ESE,120,6.0,13.0,83,-99.99,,,-99.99,,2013-05-18 18:12:00,
2013-05-18 14:21:00,58.0,52.0,-100.00,SE,135,6.0,10.0,82,-99.99,,,-99.99,,2013-05-18 18:21:00,
2013-05-18 14:32:00,57.0,51.0,-100.00,SE,140,6.0,13.0,82,-99.99,,,-99.99,,2013-05-18 18:32:00,
2013-05-18 14:42:00,56.0,51.0,-100.00,SE,145,8.0,16.0,83,-99.99,,,-99.99,,2013-05-18 18:42:00,
2013-05-18 14:52:00,57.0,52.0,-100.00,East,90,5.0,9.0,82,-99.99,,,-99.99,,2013-05-18 18:52:00,
2013-05-18 15:02:00,58.0,52.0,-100.00,ESE,105,6.0,9.0,81,-99.99,,,-99.99,,2013-05-18 19:02:00,
2013-05-18 15:12:00,57.0,51.0,-100.00,SE,145,9.0,14.0,80,-99.99,,,-99.99,,2013-05-18 19:12:00,
2013-05-18 15:22:00,57.0,51.0,-100.00,ESE,110,7.0,13.0,79,-99.99,,,-99.99,,2013-05-18 19:22:00,
2013-05-18 15:32:00,58.0,51.0,-100.00,SE,140,7.0,12.0,78,-99.99,,,-99.99,,2013-05-18 19:32:00,
2013-05-18 15:42:00,58.0,52.0,-100.00,SE,140,7.0,15.0,78,-99.99,,,-99.99,,2013-05-18 19:42:00,
2013-05-18 15:52:00,60.0,52.0,-100.00,SE,140,6.0,14.0,74,-99.99,,,-99.99,,2013-05-18 19:52:00,
2013-05-18 16:02:00,61.0,52.0,-100.00,SE,145,7.0,15.0,72,-99.99,,,-99.99,,2013-05-18 20:02:00,
2013-05-18 16:11:00,59.0,50.0,-100.00,SSE,160,8.0,20.0,72,-99.99,,,-99.99,,2013-05-18 20:11:00,
2013-05-18 16:22:00,59.0,51.0,-100.00,SSE,160,7.0,16.0,76,-99.99,,,-99.99,,2013-05-18 20:22:00,
2013-05-18 16:32:00,60.0,51.0,-100.00,SSE,160,6.0,14.0,74,-99.99,,,-99.99,,2013-05-18 20:32:00,
2013-05-18 16:42:00,59.0,50.0,-100.00,SE,145,9.0,16.0,72,-99.99,,,-99.99,,2013-05-18 20:42:00,
2013-05-18 16:52:00,61.0,51.0,-100.00,SSE,150,6.0,12.0,69,-99.99,,,-99.99,,2013-05-18 20:52:00,
2013-05-18 17:01:00,61.0,51.0,-100.00,SE,125,10.0,16.0,69,-99.99,,,-99.99,,2013-05-18 21:01:00,
2013-05-18 17:12:00,61.0,50.0,-100.00,SSE,155,10.0,16.0,66,-99.99,,,-99.99,,2013-05-18 21:12:00,
2013-05-18 17:21:00,62.0,51.0,-100.00,SE,125,7.0,17.0,68,-99.99,,,-99.99,,2013-05-18 21:21:00,
2013-05-18 17:32:00,61.0,50.0,-100.00,SE,135,10.0,16.0,67,-99.99,,,-99.99,,2013-05-18 21:32:00,
2013-05-18 17:43:00,62.0,50.0,-100.00,East,95,6.0,15.0,66,-99.99,,,-99.99,,2013-05-18 21:43:00,
2013-05-18 17:53:00,62.0,50.0,-100.00,SSE,155,7.0,13.0,66,-99.99,,,-99.99,,2013-05-18 21:53:00,
2013-05-18 18:03:00,62.0,51.0,-100.00,SE,145,9.0,17.0,67,-99.99,,,-99.99,,2013-05-18 22:03:00,
2013-05-18 18:12:00,62.0,49.0,-100.00,ESE,110,8.0,17.0,63,-99.99,,,-99.99,,2013-05-18 22:12:00,
2013-05-18 18:23:00,62.0,50.0,-100.00,SE,140,6.0,12.0,65,-99.99,,,-99.99,,2013-05-18 22:23:00,
2013-05-18 18:33:00,62.0,50.0,-100.00,ESE,105,7.0,17.0,65,-99.99,,,-99.99,,2013-05-18 22:33:00,
2013-05-18 18:42:00,62.0,50.0,-100.00,SE,145,8.0,15.0,65,-99.99,,,-99.99,,2013-05-18 22:42:00,
2013-05-18 18:52:00,61.0,50.0,-100.00,SSE,150,7.0,15.0,66,-99.99,,,-99.99,,2013-05-18 22:52:00,
2013-05-18 19:01:00,60.0,50.0,-100.00,SE,125,7.0,12.0,68,-99.99,,,-99.99,,2013-05-18 23:01:00,
2013-05-18 19:12:00,60.0,49.0,-100.00,SE,130,7.0,12.0,67,-99.99,,,-99.99,,2013-05-18 23:12:00,
2013-05-18 19:22:00,60.0,50.0,-100.00,SE,125,5.0,13.0,69,-99.99,,,-99.99,,2013-05-18 23:22:00,
2013-05-18 19:32:00,60.0,49.0,-100.00,SE,130,7.0,15.0,67,-99.99,,,-99.99,,2013-05-18 23:32:00,
2013-05-18 19:41:00,61.0,50.0,-100.00,SE,145,10.0,14.0,66,-99.99,,,-99.99,,2013-05-18 23:41:00,
2013-05-18 19:52:00,60.0,50.0,-100.00,SE,140,5.0,13.0,68,-99.99,,,-99.99,,2013-05-18 23:52:00,
2013-05-18 20:01:00,60.0,51.0,-100.00,East,95,3.0,10.0,74,-99.99,,,-99.99,,2013-05-19 00:01:00,
2013-05-18 20:12:00,60.0,50.0,-100.00,East,95,5.0,9.0,72,-99.99,,,-99.99,,2013-05-19 00:12:00,
2013-05-18 20:21:00,59.0,51.0,-100.00,NE,50,5.0,9.0,74,-99.99,,,-99.99,,2013-05-19 00:21:00,
2013-05-18 20:32:00,59.0,51.0,-100.00,NE,50,5.0,9.0,74,-99.99,,,-99.99,,2013-05-19 00:32:00,
2013-05-18 20:41:00,58.0,50.0,-100.00,SE,145,6.0,9.0,76,-99.99,,,-99.99,,2013-05-19 00:41:00,
2013-05-18 20:52:00,58.0,50.0,-100.00,ESE,120,3.0,7.0,77,-99.99,,,-99.99,,2013-05-19 00:52:00,
2013-05-18 21:01:00,57.0,50.0,-100.00,SSE,160,7.0,9.0,76,-99.99,,,-99.99,,2013-05-19 01:01:00,
2013-05-18 21:11:00,57.0,50.0,-100.00,SSE,165,5.0,8.0,78,-99.99,,,-99.99,,2013-05-19 01:11:00,
2013-05-18 21:21:00,57.0,50.0,-100.00,SSE,160,5.0,8.0,79,-99.99,,,-99.99,,2013-05-19 01:21:00,
2013-05-18 21:32:00,56.0,50.0,-100.00,SE,140,3.0,8.0,80,-99.99,,,-99.99,,2013-05-19 01:32:00,
2013-05-18 21:42:00,56.0,50.0,-100.00,SSE,155,5.0,6.0,80,-99.99,,,-99.99,,2013-05-19 01:42:00,
2013-05-18 21:52:00,56.0,51.0,-100.00,SSE,150,5.0,7.0,81,-99.99,,,-99.99,,2013-05-19 01:52:00,
2013-05-18 22:01:00,56.0,50.0,-100.00,SE,130,3.0,7.0,79,-99.99,,,-99.99,,2013-05-19 02:01:00,
2013-05-18 22:11:00,56.0,50.0,-100.00,SSE,165,5.0,7.0,80,-99.99,,,-99.99,,2013-05-19 02:11:00,
2013-05-18 22:21:00,56.0,50.0,-100.00,South,170,3.0,5.0,79,-99.99,,,-99.99,,2013-05-19 02:21:00,
2013-05-18 22:32:00,56.0,50.0,-100.00,East,95,3.0,5.0,81,-99.99,,,-99.99,,2013-05-19 02:32:00,
2013-05-18 22:42:00,56.0,50.0,-100.00,ENE,65,2.0,7.0,81,-99.99,,,-99.99,,2013-05-19 02:42:00,
2013-05-18 22:52:00,56.0,50.0,-100.00,SSE,165,3.0,5.0,80,-99.99,,,-99.99,,2013-05-19 02:52:00,
2013-05-18 23:01:00,55.0,50.0,-100.00,ESE,110,3.0,5.0,82,-99.99,,,-99.99,,2013-05-19 03:01:00,
2013-05-18 23:11:00,55.0,50.0,-100.00,SE,130,5.0,7.0,83,-99.99,,,-99.99,,2013-05-19 03:11:00,
2013-05-18 23:22:00,55.0,50.0,-100.00,SSE,160,3.0,6.0,84,-99.99,,,-99.99,,2013-05-19 03:22:00,
2013-05-18 23:33:00,55.0,50.0,-100.00,SSE,155,5.0,7.0,85,-99.99,,,-99.99,,2013-05-19 03:33:00,
2013-05-18 23:42:00,55.0,50.0,-100.00,ENE,60,5.0,7.0,83,-99.99,,,-99.99,,2013-05-19 03:42:00,
2013-05-18 23:53:00,55.0,50.0,-100.00,NE,55,3.0,6.0,82,-99.99,,,-99.99,,2013-05-19 03:53:00,